This is the latest recevied weather packets stored in our database for station/object KI4HRG. If no packets are shown the sender has not sent any weather packets the latest 10 day(s).
| Time | Temp. | Humidity | Pressure | Rain* | Wind** | Luminosity | Snow |
|---|---|---|---|---|---|---|---|
| 1777832066 | 21.67° C | 38% | 1021.2 hPa | 0 mm | - | 766 W/m² | - |
| 1777831762 | 20.56° C | 40% | 1021.2 hPa | 0 mm | - | 756 W/m² | - |
| 1777831460 | 20.56° C | 39% | 1021.2 hPa | 0 mm | - | 737 W/m² | - |
| 1777831157 | 20.56° C | 40% | 1021.3 hPa | 0 mm | - | 724 W/m² | - |
| 1777830855 | 19.44° C | 40% | 1021.6 hPa | 0 mm | - | 722 W/m² | - |
| 1777830550 | 20° C | 41% | 1021.4 hPa | 0 mm | - | 691 W/m² | - |
| 1777830249 | 20° C | 39% | 1021.2 hPa | 0 mm | - | 681 W/m² | - |
| 1777829943 | 20° C | 40% | 1021.4 hPa | 0 mm | - | 686 W/m² | - |
| 1777829640 | 20° C | 38% | 1021.5 hPa | 0 mm | - | 705 W/m² | - |
| 1777829336 | 20° C | 38% | 1021.6 hPa | 0 mm | - | 702 W/m² | - |
| 1777829034 | 20° C | 39% | 1021.5 hPa | 0 mm | - | 705 W/m² | - |
| 1777828730 | 19.44° C | 42% | 1021.7 hPa | 0 mm | - | 701 W/m² | - |
| 1777828427 | 20.56° C | 40% | 1021.9 hPa | 0 mm | - | 690 W/m² | - |
| 1777828124 | 19.44° C | 39% | 1021.9 hPa | 0 mm | - | 688 W/m² | - |
| 1777827820 | 19.44° C | 39% | 1022 hPa | 0 mm | - | 718 W/m² | - |
| 1777827517 | 20° C | 40% | 1022.1 hPa | 0 mm | - | 734 W/m² | - |
| 1777827215 | 20° C | 38% | 1021.8 hPa | 0 mm | - | 724 W/m² | - |
| 1777826911 | 20° C | 39% | 1022 hPa | 0 mm | - | 721 W/m² | - |
| 1777826609 | 19.44° C | 40% | 1022 hPa | 0 mm | - | 727 W/m² | - |
| 1777826305 | 18.89° C | 42% | 1022.1 hPa | 0 mm | - | 727 W/m² | - |
| 1777826003 | 18.89° C | 41% | 1022.1 hPa | 0 mm | - | 722 W/m² | - |
| 1777825699 | 19.44° C | 41% | 1022 hPa | 0 mm | - | 713 W/m² | - |
| 1777825397 | 18.33° C | 44% | 1022.1 hPa | 0 mm | - | 730 W/m² | - |
| 1777825094 | 18.89° C | 42% | 1022.3 hPa | 0 mm | - | 761 W/m² | - |
| 1777824790 | 18.89° C | 43% | 1022.1 hPa | 0 mm | - | 746 W/m² | - |
* Rain latest hour (hover to see other rain measurements)
** Current wind speed in m/s (hover to see current wind gust speed)